Location: Chot?m??ice
(49.8084°N, 15.1666°E)
Time: 14:48:42
(UTC+00:00)

Daily predictions for brighter satellites

Satellite Brightness Start Highest point End
(mag) Time Altitude Azimuth Time Altitude Azimuth Time Altitude Azimuth
Cosmos 1408 Rocket 3.7 15:34:51 10° NNW 15:39:16 80° W 15:43:36 10° S
Sich 1 4.0 15:37:01 10° NNE 15:40:43 26° ENE 15:44:22 10° SE
Cosmos 2219 Rocket 2.3 15:35:28 10° SSW 15:41:08 87° ESE 15:46:49 10° NNE
MOS 1-B 4.4 15:37:31 10° SSE 15:43:18 76° ENE 15:49:07 10° NNW
Cosmos 1862 3.5 15:39:38 10° N 15:43:37 52° ENE 15:47:32 10° SSE
Okean-O 4.4 15:43:24 10° ENE 15:45:01 12° NE 15:46:39 10° NNE
H-2A R/B 3.8 15:43:50 10° ENE 15:45:08 11° NE 15:46:24 10° NE
Cosmos 44 4.3 15:41:30 10° NNW 15:46:08 32° NE 15:50:55 10° E
Cosmos 1814 Rocket 4.1 15:40:53 10° SSW 15:46:13 79° ESE 15:51:32 10° NNE
Cosmos 1980 Rocket 4.4 15:45:52 10° NW 15:48:02 12° NNW 15:50:11 10° N
Cosmos 724 4.4 15:42:59 10° SSW 15:48:53 76° SE 15:54:57 10° NE
Cosmos 1842 Rocket 3.5 15:45:00 10° S 15:49:18 77° E 15:53:39 10° NNE
CZ-4B R/B 3.2 15:44:37 10° SE 15:49:49 55° ENE 15:55:00 10° N
SL-16 R/B 4.1 15:46:38 10° W 15:51:04 23° NW 15:55:31 10° NNE
AQUARIUS 4.5 15:47:48 10° SE 15:52:04 45° ENE 15:56:22 10° N
Cosmos 2237 Rocket 2.7 15:47:02 10° S 15:52:12 39° ESE 15:57:25 10° NE
Nadezhda 1 Rocket 4.2 15:46:24 10° SSE 15:52:31 54° E 15:58:44 10° NNE
ADEOS Rocket 3.6 15:45:55 10° NNE 15:53:36 78° ESE 16:01:23 10° S
Okean O Rocket 1.8 15:49:48 10° SE 15:53:59 47° ENE 15:58:11 10° N
Cosmos 1805 Rocket 3.9 15:49:55 10° N 15:54:11 43° ENE 15:58:26 10° SSE
GENESIS II 4.1 15:51:25 10° NW 15:55:24 72° NE 15:59:17 10° SE
Cosmos 1570 Rocket 4.3 15:53:16 10° SSW 15:58:35 74° WNW 16:03:53 10° NNE
Cosmos 1666 Rocket 4.5 15:56:42 10° NNE 16:00:26 26° ENE 16:04:10 10° SE
Cosmos 2369 Rocket 3.5 15:58:12 10° N 16:02:20 20° NE 16:06:00 11° E
CORIOLIS 4.2 15:57:18 10° SSE 16:02:36 59° ENE 16:07:57 10° N
CZ-4C R/B 3.0 15:58:58 10° NNE 16:02:36 77° ESE 16:06:15 10° S
Cosmos 2322 4.4 15:58:01 10° SW 16:03:34 53° NW 16:09:10 10° NNE
FengYun 1-2 T 4.4 15:58:31 10° SE 16:03:51 50° ENE 16:09:09 10° N
CZ-4 R/B 3.0 16:02:50 10° E 16:04:49 14° ENE 16:06:58 10° NNE
NOSS 0 Rocket 4.0 15:59:47 10° SSW 16:05:55 64° ESE 16:12:06 10° NE
Cosmos 2154 Rocket 4.0 15:59:37 10° N 16:06:00 78° E 16:12:21 10° SSE
Cosmos 1900 4.4 16:02:45 10° SW 16:07:52 88° SE 16:13:05 10° NE
Landsat 5 3.6 16:03:41 10° NNE 16:08:04 80° ESE 16:12:32 10° SSW
USA 215 4.1 16:03:27 11° ENE 16:09:05 35° SE 16:14:57 10° SSW
Cosmos 1980 3.8 16:04:58 10° S 16:10:31 57° ESE 16:16:06 10° NE
YAOGAN 6 2.8 16:07:49 10° S 16:11:29 77° WSW 16:15:08 10° NNW
Cosmos 405 3.7 16:10:11 10° SSW 16:13:36 53° WNW 16:17:03 10° N
Cosmos 389 Rocket 3.2 16:11:51 10° SSE 16:14:52 30° E 16:17:22 13° NE
Cosmos 1939 Rocket 3.6 16:11:35 10° SE 16:14:57 29° ENE 16:18:22 10° N
Cosmos 2341 Rocket 4.1 16:10:11 10° N 16:16:21 54° ENE 16:22:30 10° SSE
H-2A R/B 4.4 16:14:06 10° SSW 16:17:41 38° W 16:21:20 10° NNW
H-2A R/B 1.9 16:15:54 10° NNE 16:20:05 81° ESE 16:24:19 10° SSW
Cosmos 1867 4.4 16:18:48 10° S 16:23:35 33° ESE 16:26:55 18° ENE
ISS -3.4 16:22:51 10° SW 16:26:09 54° SSE 16:27:59 23° E
Cosmos 405 Rocket 3.9 16:24:01 10° NNW 16:27:46 46° W 16:31:34 10° S
Cosmos 1943 Rocket 2.7 16:22:49 10° NNW 16:27:53 35° NE 16:32:39 11° ESE
Cosmos 1818 4.4 16:23:08 10° NW 16:28:29 54° WSW 16:33:47 10° SSE
Cosmos 2285 Rocket 4.2 16:24:09 10° NNW 16:30:24 50° ENE 16:36:34 10° SE
Cosmos 1633 Rocket 3.4 16:26:15 10° N 16:30:25 40° ENE 16:34:32 10° SE
Cosmos 2297 3.8 16:24:52 10° NNW 16:30:27 54° NE 16:36:02 10° SE
CZ-2C R/B 3.7 16:27:07 10° ESE 16:31:27 30° ENE 16:35:39 10° N
CSL-04 DEB 4.3 16:28:09 10° NNE 16:32:15 77° ESE 16:36:25 10° SSW
CRYOSAT 2 4.3 16:29:07 10° N 16:34:02 88° E 16:38:57 10° S
CZ-4B R/B 1.5 16:34:26 25° NE 16:35:51 43° E 16:38:49 10° S
Cosmos 1356 3.2 16:33:04 10° N 16:36:31 74° ENE 16:39:55 10° SSE
Cosmos 1125 Rocket 4.0 16:31:24 10° NNW 16:36:33 62° WSW 16:41:40 10° S
SL-8 Rocket 4.0 16:30:55 10° N 16:37:04 58° ENE 16:43:12 10° SSE
Meteor 2-12 Rocket 4.4 16:32:22 10° N 16:38:35 84° E 16:44:43 10° S
ARGOS 4.3 16:38:14 21° ENE 16:38:44 21° ENE 16:42:43 10° N
Cosmos 2322 Rocket 4.4 16:35:23 10° WNW 16:38:47 16° NNW 16:42:12 10° N
SL-16 R/B 2.8 16:35:44 10° S 16:40:49 36° ESE 16:43:43 22° ENE
Cosmos 2221 4.1 16:37:37 10° SW 16:41:38 36° WNW 16:45:38 10° N
SMAP 3.8 16:37:10 10° S 16:41:45 57° W 16:46:21 10° NNW
CREW DRAGON DEMO-1 DEB 3.0 16:38:57 10° WNW 16:41:55 65° SSW 16:43:19 27° SE
USA 267 3.2 16:37:37 12° ESE 16:43:42 75° NNE 16:50:14 10° WNW
Cosmos 2181 Rocket 4.1 16:42:13 10° SSE 16:48:27 55° E 16:54:40 10° NNE
Cosmos 1933 3.5 16:45:38 10° S 16:49:32 49° E 16:51:57 21° NNE
Cosmos 1606 2.6 16:46:14 10° S 16:50:08 87° E 16:54:04 10° N
SAR-Lupe-4 4.0 16:50:56 37° E 16:51:10 37° E 16:54:32 10° SSE
SL-24 R/B 4.3 16:52:24 34° ENE 16:53:09 37° E 16:56:42 10° SSE
Cosmos 2333 Rocket 3.8 16:53:43 10° WSW 16:58:41 30° NW 17:03:39 10° NNE
IRS-1C Rocket 4.0 16:55:03 10° SSE 17:00:18 76° ENE 17:05:36 10° NNW
CZ-4 R/B 4.3 16:58:49 10° SSE 17:02:56 67° ENE 17:07:03 10° N
YAOGAN 1 2.8 17:01:44 33° ESE 17:03:02 43° ENE 17:07:08 10° N
COSMOS 2428 4.2 16:59:10 10° WSW 17:04:21 34° NW 17:09:32 10° NNE
Cosmos 1782 4.2 17:00:51 10° SSE 17:02:38 23° SE 17:02:38 23° SE
Meteor 1-20 Rocket 4.2 16:59:01 10° NNW 17:04:55 86° ENE 17:10:46 10° SSE
Cosmos 2278 Rocket 4.3 17:01:08 10° NW 17:05:55 29° WSW 17:10:40 10° SSW
PSLV R/B 4.2 17:06:30 42° ESE 17:06:30 42° ESE 17:10:07 10° S
Cosmos 1470 Rocket 3.5 17:02:34 10° N 17:06:51 53° ENE 17:11:04 10° SSE
SAR-Lupe-1 4.1 17:08:28 56° ESE 17:08:28 56° ESE 17:11:52 10° S
ERS-2 2.1 17:08:38 26° N 17:10:37 79° WNW 17:14:16 10° SSW
USA 281 3.1 17:05:50 10° SE 17:12:23 79° ENE 17:18:58 10° NNW
COSMO-SKYMED 1 2.4 17:10:27 25° NNE 17:12:55 73° ESE 17:17:15 10° S
Helios 1A Rocket 2.8 17:11:26 28° SE 17:13:23 62° ENE 17:17:22 10° N
USA 81 4.0 17:08:45 10° N 17:14:04 86° W 17:19:21 10° S
MOS 1 Rocket 3.9 17:14:02 39° ENE 17:15:02 42° E 17:20:11 10° SSE
Okean-O 2.5 17:16:19 10° SSE 17:20:43 75° ENE 17:25:10 10° NNW
Cosmos 773 Rocket 4.1 17:15:40 10° S 17:20:46 54° ESE 17:21:43 47° ENE
CSL-04 Debris 4.3 17:20:25 31° SE 17:22:47 53° ENE 17:28:07 10° N
H-2A R/B 2.1 17:21:16 32° SE 17:23:30 55° ENE 17:28:34 10° N
Lacrosse 5 rocket 2.4 17:20:43 10° SSW 17:22:55 28° S 17:22:55 28° S
Cosmos 1602 3.6 17:20:19 10° N 17:24:16 81° E 17:24:18 81° E
Cosmos 2218 Rocket 4.0 17:18:45 10° NNW 17:24:56 80° W 17:31:04 10° S
CZ-2D R/B 3.4 17:21:22 10° S 17:25:10 70° WSW 17:29:01 10° NNW
Cosmos 2219 Rocket 4.1 17:21:22 10° W 17:25:50 23° NW 17:30:17 10° NNE
Meteor 1-25 Rocket 4.5 17:20:37 10° NNW 17:26:12 69° W 17:31:49 10° S
Meteor 1-5 Rocket 4.5 17:21:13 10° N 17:26:59 46° ENE 17:27:12 46° ENE
Cosmos 44 3.7 17:22:34 10° NW 17:27:49 70° SW 17:31:48 18° SSE
EO 1 Delta rocket 4.2 17:23:51 10° NNE 17:29:05 81° E 17:35:37 10° S
Cosmos 783 Rocket 4.4 17:24:19 10° SSW 17:29:37 85° ESE 17:31:44 38° NNE
Okean O Rocket 4.2 17:27:12 10° SW 17:30:34 22° W 17:33:58 10° NW
Cosmos 2366 rocket 4.2 17:28:20 10° NNW 17:34:32 72° W 17:40:38 10° S
Cosmos 1656 Rocket 4.3 17:29:21 10° NNW 17:33:51 37° NNE 17:33:51 37° NNE
Cosmos 1151 Rocket 3.2 17:30:51 10° SSW 17:35:08 70° WNW 17:36:52 34° N
Cosmos 2237 Rocket 3.2 17:30:56 10° WSW 17:36:15 42° NW 17:40:11 18° NNE
Cosmos 1933 Rocket 4.2 17:33:00 10° N 17:36:05 43° N 17:36:05 43° N
SJ-11-01 4.5 17:39:22 56° NNE 17:39:22 56° NNE 17:43:15 10° N
CZ-4 R/B 1.5 17:38:52 64° SSW 17:39:19 72° WSW 17:43:20 10° NNW
Cosmos 1328 Rocket 3.8 17:39:57 10° SSW 17:44:13 64° WNW 17:45:21 45° NNW
CSL-04 Rocket 3.5 17:44:43 67° ESE 17:45:16 73° ENE 17:50:36 10° NNW
Cosmos 2369 Rocket 2.0 17:41:38 10° NNW 17:47:22 75° ENE 17:47:50 70° E
USA 215 3.2 17:50:48 52° ENE 17:52:36 89° NW 17:59:09 10° WSW
Cosmos 489 Rocket 4.3 17:51:01 10° SSW 17:57:12 76° ESE 17:57:38 72° ENE
Cosmos 2239 Rocket 4.4 17:55:10 10° N 18:00:38 66° NE 18:00:38 66° NE
ISS -1.2 17:59:38 10° W 18:00:57 22° W 18:00:57 22° W
Cosmos 1867 4.0 18:01:39 10° WSW 18:06:59 55° NW 18:07:37 52° NNW
CZ-4B R/B 4.4 18:07:34 13° WNW 18:07:47 13° WNW 18:09:15 10° W
CZ-2C R/B 4.0 18:06:22 10° S 18:11:13 43° W 18:15:54 10° NNW
Cosmos 1943 Rocket 2.9 18:06:29 10° NW 18:11:49 49° WSW 18:14:17 29° SSW
ARGOS 3.7 18:19:45 53° NW 18:19:45 53° NW 18:23:54 10° NNW
Nadezhda 3 Rocket 4.3 18:18:00 10° S 18:33:04 - N 18:22:56 57° SSW
SL-16 R/B 3.0 18:19:23 10° SW 18:24:50 46° NW 18:25:38 43° NNW
USA 267 4.0 18:25:00 36° S 18:27:00 46° SW 18:33:15 10° WNW
NOSS 3-3 (A) 4.4 18:21:28 10° NW 18:28:26 71° NNE 18:28:26 71° NNE
NOSS 3-3 (C) 4.4 18:21:35 10° NW 18:28:30 71° NNE 18:28:30 71° NNE
Cosmos 1821 Rocket 4.5 18:30:28 10° NNW 18:36:31 57° W 18:38:27 41° SSW
H-2A R/B 4.0 19:01:54 23° WSW 19:03:13 25° W 19:07:30 10° NW
Cosmos 2369 Rocket 4.5 19:26:40 10° NW 19:29:41 20° W 19:29:41 20° W
